SKOVDE FLYGPLATS current weather conditions

sailwx.info

Wind from 200 at 2 knots

Air temperature -0.0° C
Visibility: greater than 5.4 NM
Dewpoint -0.0° C

Last reported at 2015-Mar-27 20:20 UTC.
Time now 2015-Mar-27 22:13 UTC

Location: N 58°27' E 013°58'.
View on Google Maps.

See reports from other nearby stations

  
Tides and Currents Weather Stations Pressure Air Temp Water Temp Dewpoint Dewpoint Depression Visibility Wind Speed Wind Dir Waves Ship Positions
date/time (UTC)wind fromknots sea level pressurealtimeterstation pressurevisibilityair tempwater tempwave heightnotes
2015-Mar-27 21:20 140 3 5.4 1.0
2015-Mar-27 20:50 5.4-0.0
2015-Mar-27 20:20 200 2 5.4-0.0
2015-Mar-27 19:50 5.4-0.0
2015-Mar-27 19:20 5.4-0.0
2015-Mar-27 18:50 260 2 5.4 2.0
2015-Mar-27 18:20 280 4 5.4 3.0
2015-Mar-27 17:50 310 5 5.4 4.0
2015-Mar-27 17:20 300 5 5.4 5.0
2015-Mar-27 16:50 320 4 5.4 6.0
2015-Mar-27 16:20 300 3 5.4 6.0
2015-Mar-27 15:50 300 6 5.4 6.0
2015-Mar-27 15:20 280 6 5.4 7.0
2015-Mar-27 14:50 260 7 5.4 7.0
2015-Mar-27 14:20 250 7 5.4 7.0
2015-Mar-27 13:50 300 7 5.4 8.0
2015-Mar-27 13:20 270 8 5.4 8.0
2015-Mar-27 12:50 280 6 5.4 7.0
2015-Mar-27 12:20 260 9 5.4 6.0
2015-Mar-27 11:50 290 9 5.4 6.0
2015-Mar-27 11:20 230 5 5.4 6.0
2015-Mar-27 10:50 250 5 5.4 4.0
2015-Mar-27 10:20 270 5 5.4 4.0
2015-Mar-27 09:50 280 6 5.4 4.0
2015-Mar-27 09:20 280 6 5.4 4.0
2015-Mar-27 08:50 260 5 5.4 3.0
2015-Mar-27 08:20 300 4 4.9 3.0 Mist.
2015-Mar-27 07:50 290 4 4.3 3.0 Mist.
2015-Mar-27 07:20 280 4 4.9 3.0 Mist.
2015-Mar-27 06:50 300 4 4.9 3.0 Mist.
2015-Mar-27 06:20 290 4 4.3 3.0 Mist.
2015-Mar-27 05:50 280 3 4.3 3.0 Mist.
2015-Mar-27 05:20 3.8 3.0 Mist.
2015-Mar-27 04:50 270 4 4.3 3.0 Mist.
2015-Mar-27 04:20 280 3 2.7 3.0 Mist.
2015-Mar-27 03:50 290 4 2.7 3.0 Mist.
2015-Mar-27 03:20 290 4 1.5 3.0 Light drizzle.
2015-Mar-27 02:50 290 4 0.7 4.0 Light drizzle.
2015-Mar-27 02:20 1.0 4.0 Light rain.
2015-Mar-27 01:50 320 3 0.8 4.0 Light rain.
2015-Mar-27 01:20 0.6 4.0 Light rain.
2015-Mar-27 00:50 0.4 3.0 Light rain.
2015-Mar-27 00:20 290 1 0.7 4.0 Light rain.
2015-Mar-26 23:50 0.9 4.0 Light rain.
2015-Mar-26 23:20 1.3 4.0 Light drizzle.
2015-Mar-26 22:50 0.4 4.0 Mist.
2015-Mar-26 22:20 0.8 4.0 Mist.
2015-Mar-26 21:50 1.1 4.0 Mist.
2015-Mar-26 21:20 040 1 1.4 4.0 Light drizzle.
2015-Mar-26 20:50 1.6 4.0 Mist.
2015-Mar-26 20:20 1.9 4.0 Mist.
2015-Mar-26 19:50 130 3 1.8 4.0 Mist.
2015-Mar-26 19:20 130 4 1.9 4.0 Mist.
2015-Mar-26 18:50 130 4 1.8 4.0 Mist.
2015-Mar-26 18:20 120 5 2.1 4.0 Mist.
2015-Mar-26 17:50 120 5 2.6 5.0 Light drizzle.
2015-Mar-26 17:20 110 5 2.7 5.0 Mist.
2015-Mar-26 16:50 110 3 2.5 5.0 Mist.
2015-Mar-26 16:20 110 2 2.6 5.0 Light drizzle.
2015-Mar-26 15:50 090 3 2.5 5.0 Drizzle.
2015-Mar-26 15:20 070 4 1.7 5.0 Light rain.
2015-Mar-26 14:50 070 4 2.1 5.0
2015-Mar-26 14:20 070 5 1.9 4.0
2015-Mar-26 13:50 090 3 2.2 4.0 Light rain.
2015-Mar-26 13:20 200 5 4.3 4.0 Light drizzle.
2015-Mar-26 12:50 120 8 4.9 4.0 Light rain.
2015-Mar-26 12:20 110 10 3.8 4.0 Light rain.
2015-Mar-26 11:50 110 11 3.8 4.0 Light rain.
2015-Mar-26 11:20 100 10 4.3 3.0 Light rain.
2015-Mar-26 10:50 100 12 4.3 3.0 Light rain.
2015-Mar-26 10:20 100 11 4.3 3.0 Light rain.
2015-Mar-26 09:50 100 9 3.8 2.0 Light rain.
2015-Mar-26 09:20 100 11 5.4 3.0 Light drizzle.
2015-Mar-26 08:50 100 9 5.4 3.0
2015-Mar-26 08:20 100 10 5.4 3.0
2015-Mar-26 07:50 100 9 5.4 2.0
2015-Mar-26 07:20 100 12 5.4 2.0 Light rain snow.
2015-Mar-26 06:50 100 9 5.4 2.0 Precipitation.
2015-Mar-26 06:20 100 8 5.4 1.0
2015-Mar-26 05:50 110 8 5.4 1.0
2015-Mar-26 05:20 100 12 gusting 23 5.4 1.0
2015-Mar-26 04:50 110 11 5.4-0.0
2015-Mar-26 04:20 120 13 5.4-0.0
2015-Mar-26 03:50 100 15 5.4 1.0
2015-Mar-26 03:20 100 14 gusting 24 5.4-0.0
2015-Mar-26 02:50 100 12 5.4-0.0
2015-Mar-26 02:20 100 13 5.4-0.0
2015-Mar-26 01:50 100 12 5.4-0.0
2015-Mar-26 01:20 100 12 gusting 22 5.4-0.0
2015-Mar-26 00:50 090 13 5.4-0.0
2015-Mar-26 00:20 090 12 gusting 22 5.4-0.0
2015-Mar-25 23:50 090 10 5.4-0.0
2015-Mar-25 23:20 090 10 gusting 20 5.4-0.0
2015-Mar-25 22:50 090 14 5.4-1.0
2015-Mar-25 22:20 090 14 5.4-0.0